Brookings, OR

10:33 PM PDT on July 24, 2017 (GMT -0700)
Brookings State

Weather History for KBOK - November, 2012

Change the Weather History Date:

Thursday, November 8, 2012

  Actual Average Record
Temperature  
Mean Temperature 42 °F -  
Max Temperature 46 °F 59 °F 72 °F (1943)
Min Temperature 38 °F 45 °F 36 °F (1966)
Degree Days  
Heating Degree Days 23    
Moisture  
Dew Point 42 °F    
Average Humidity 100    
Maximum Humidity 100    
Minimum Humidity 87    
Precipitation  
Precipitation 0.56 in - - ()
Sea Level Pressure  
Sea Level Pressure 29.85 in    
Wind  
Wind Speed 4 mph (East)    
Max Wind Speed 9 mph    
Max Gust Speed -    
Visibility 6 miles    
Events Rain    
Averages and records for this station are not official NWS values.
T = Trace of Precipitation, MM = Missing Value Source: NWS Daily Summary

Daily Weather History Graph

Daily Weather History Graph

Search for Another Location

Airport or City:

Trip Planner

Search our weather history database for the weather conditions in past years. The results will help you decide how hot, cold, wet, or windy it might be!

Date:

Astronomy

Nov. 08, 2012 Rise Set
Actual Time 6:59 AM PST 5:02 PM PST
Civil Twilight 6:29 AM PST 5:31 PM PST
Nautical Twilight 5:56 AM PST 6:05 PM PST
Astronomical Twilight 5:23 AM PST 6:37 PM PST
Moon 12:54 AM PST (11/8) 1:51 PM PST (11/8)
Length of Visible Light 11h 02m
Length of Day
10h 02m
Waning Crescent, 32% of the Moon is Illuminated
Nov 8
Waning Crescent
Nov 13
New
Nov 20
First Quarter
Nov 28
Full
Dec 6
Last Quarter

Hourly Weather History & Observations

Time (PST) Temp. Windchill Dew Point Humidity Pressure Visibility Wind Dir Wind Speed Gust Speed Precip Events Conditions
12:56 AM 43.9 °F 42.3 °F 43.9 °F 100% 29.95 in 10.0 mi NE 3.5 mph - 0.00 in   Partly Cloudy
1:56 AM 41.9 °F 40.0 °F 41.9 °F 100% 29.93 in 10.0 mi ENE 3.5 mph - N/A   Clear
2:56 AM 45.0 °F 43.5 °F 43.0 °F 93% 29.90 in 10.0 mi East 3.5 mph - N/A   Scattered Clouds
3:10 AM 46.4 °F 44.3 °F 42.8 °F 87% 29.89 in 4.0 mi ENE 4.6 mph - 0.00 in Rain Light Rain
3:56 AM 43.9 °F 41.3 °F 43.9 °F 100% 29.88 in 10.0 mi SSE 4.6 mph - 0.00 in   Mostly Cloudy
4:27 AM 44.6 °F - 44.6 °F 100% 29.86 in 4.0 mi Calm Calm - 0.01 in Rain Light Rain
4:41 AM 44.6 °F - 44.6 °F 100% 29.87 in 1.8 mi Calm Calm - 0.08 in Rain Heavy Rain
4:56 AM 43.9 °F - 43.9 °F 100% 29.87 in 4.0 mi Calm Calm - 0.10 in Rain Rain
5:16 AM 44.6 °F - 44.6 °F 100% 29.86 in 3.0 mi Calm Calm - 0.03 in Rain Rain
5:19 AM 44.6 °F - 44.6 °F 100% 29.86 in 2.5 mi Calm Calm - 0.03 in Rain Rain
5:32 AM 44.6 °F - 44.6 °F 100% 29.86 in 2.5 mi Calm Calm - 0.06 in Rain Rain
5:39 AM 44.6 °F - 44.6 °F 100% 29.85 in 2.5 mi Calm Calm - 0.08 in Rain Heavy Rain
5:49 AM 44.6 °F - 44.6 °F 100% 29.85 in 2.5 mi Calm Calm - 0.10 in Rain Rain
5:56 AM 43.9 °F - 43.9 °F 100% 29.86 in 3.0 mi Calm Calm - 0.13 in Rain Heavy Rain
6:07 AM 44.6 °F 39.7 °F 44.6 °F 100% 29.85 in 1.8 mi North 9.2 mph - 0.06 in Rain Heavy Rain
6:16 AM 42.8 °F 39.3 °F 42.8 °F 100% 29.85 in 2.0 mi NNE 5.8 mph - 0.11 in Rain Heavy Rain
6:28 AM 42.8 °F 40.1 °F 42.8 °F 100% 29.84 in 4.0 mi ENE 4.6 mph - 0.14 in Rain Rain
6:34 AM 42.8 °F 40.1 °F 42.8 °F 100% 29.84 in 5.0 mi Variable 4.6 mph - 0.15 in Rain Light Rain
6:46 AM 42.8 °F 40.1 °F 42.8 °F 100% 29.83 in 6.0 mi Variable 4.6 mph - 0.15 in Rain Light Rain
6:56 AM 41.9 °F 38.2 °F 41.9 °F 100% 29.84 in 10.0 mi East 5.8 mph - 0.15 in Rain Light Rain
7:56 AM 41.9 °F 37.5 °F 41.9 °F 100% 29.84 in 10.0 mi Variable 6.9 mph - 0.00 in   Mostly Cloudy
8:18 AM 42.8 °F 39.3 °F 42.8 °F 100% 29.84 in 7.0 mi Variable 5.8 mph - 0.00 in Rain Rain
8:23 AM 42.8 °F 39.3 °F 42.8 °F 100% 29.84 in 2.5 mi Variable 5.8 mph - 0.02 in Rain Heavy Rain
8:45 AM 42.8 °F 41.1 °F 42.8 °F 100% 29.84 in 2.5 mi ENE 3.5 mph - 0.07 in Rain Rain
8:56 AM 41.9 °F 39.0 °F 41.9 °F 100% 29.85 in 8.0 mi Variable 4.6 mph - 0.07 in Rain Light Rain
9:56 AM 41.9 °F 38.2 °F 41.9 °F 100% 29.84 in 3.0 mi Variable 5.8 mph - 0.02 in Rain Rain
9:58 AM 42.8 °F 39.3 °F 42.8 °F 100% 29.83 in 2.0 mi Variable 5.8 mph - 0.00 in Rain Rain
10:12 AM 41.0 °F 36.4 °F 41.0 °F 100% 29.83 in 10.0 mi Variable 6.9 mph - 0.00 in Rain Light Rain
10:25 AM 42.8 °F 38.6 °F 42.8 °F 100% 29.84 in 6.0 mi Variable 6.9 mph - 0.00 in   Overcast
10:43 AM 42.8 °F 38.6 °F 42.8 °F 100% 29.84 in 5.0 mi Variable 6.9 mph - 0.01 in Rain Light Rain
10:56 AM 41.0 °F 37.1 °F 41.0 °F 100% 29.85 in 3.0 mi Variable 5.8 mph - 0.02 in Rain Light Rain
11:10 AM 41.0 °F 37.1 °F 41.0 °F 100% 29.84 in 1.8 mi ENE 5.8 mph - 0.02 in Rain Heavy Rain
11:18 AM 41.0 °F 35.2 °F 41.0 °F 100% 29.84 in 3.0 mi ENE 9.2 mph - 0.02 in Rain Light Rain
11:25 AM 42.8 °F 40.1 °F 42.8 °F 100% 29.84 in 10.0 mi Variable 4.6 mph - 0.02 in   Overcast
11:56 AM 41.0 °F 37.1 °F 41.0 °F 100% 29.85 in 2.5 mi East 5.8 mph - 0.03 in Rain Rain
12:03 PM 41.0 °F 38.0 °F 41.0 °F 100% 29.84 in 2.5 mi Variable 4.6 mph - 0.00 in Rain Light Rain
12:10 PM 41.0 °F 36.4 °F 41.0 °F 100% 29.84 in 8.0 mi East 6.9 mph - 0.00 in Rain Light Rain
12:17 PM 42.8 °F 39.3 °F 42.8 °F 100% 29.84 in 10.0 mi Variable 5.8 mph - 0.00 in   Overcast
12:56 PM 43.9 °F 39.9 °F 43.9 °F 100% 29.83 in 10.0 mi ESE 6.9 mph - 0.00 in   Mostly Cloudy
1:37 PM 42.8 °F 41.1 °F 42.8 °F 100% 29.83 in 1.8 mi Variable 3.5 mph - 0.03 in Rain Heavy Rain
1:42 PM 42.8 °F 39.3 °F 42.8 °F 100% 29.82 in 1.0 mi Variable 5.8 mph - 0.03 in Rain Heavy Rain
1:46 PM 42.8 °F 40.1 °F 42.8 °F 100% 29.82 in 1.2 mi Variable 4.6 mph - 0.03 in Rain Light Rain
1:48 PM 42.8 °F 40.1 °F 42.8 °F 100% 29.82 in 1.5 mi Variable 4.6 mph - 0.03 in Rain Light Rain
1:56 PM 43.0 °F 40.3 °F 43.0 °F 100% 29.83 in 7.0 mi Variable 4.6 mph - 0.04 in   Overcast
2:38 PM 44.6 °F 39.7 °F 44.6 °F 100% 29.82 in 10.0 mi ENE 9.2 mph - N/A   Mostly Cloudy
2:56 PM 43.9 °F 39.3 °F 43.9 °F 100% 29.83 in 10.0 mi East 8.1 mph - N/A   Scattered Clouds
3:56 PM 43.0 °F 39.5 °F 43.0 °F 100% 29.84 in 10.0 mi Variable 5.8 mph - N/A   Partly Cloudy
4:56 PM 41.0 °F 36.4 °F 41.0 °F 100% 29.84 in 10.0 mi East 6.9 mph - N/A   Mostly Cloudy
5:56 PM 39.9 °F 37.8 °F 39.9 °F 100% 29.85 in 10.0 mi Variable 3.5 mph - N/A   Partly Cloudy
6:56 PM 39.9 °F 36.7 °F 39.9 °F 100% 29.86 in 10.0 mi Variable 4.6 mph - N/A   Overcast
7:56 PM 41.0 °F 39.0 °F 39.9 °F 96% 29.87 in 10.0 mi Variable 3.5 mph - 0.00 in   Overcast
8:56 PM 39.9 °F 37.8 °F 39.9 °F 100% 29.88 in 10.0 mi Variable 3.5 mph - N/A   Overcast
9:56 PM 38.8 °F 36.5 °F 38.8 °F 100% 29.89 in 10.0 mi East 3.5 mph - N/A   Mostly Cloudy
10:56 PM 38.8 °F - 38.8 °F 100% 29.90 in 10.0 mi Calm Calm - N/A   Overcast
11:56 PM 38.8 °F 36.5 °F 38.8 °F 100% 29.90 in 10.0 mi ESE 3.5 mph - 0.00 in Rain Light Rain